Weather History for KAIA - November, 2012

Change the Weather History Date:

Tuesday, November 6, 2012

  Actual Average Record
Temperature  
Mean Temperature 45 °F 38 °F  
Max Temperature 62 °F 53 °F 77 °F (1999)
Min Temperature 28 °F 22 °F 2 °F (1933)
Degree Days  
Heating Degree Days 20 28  
Month to date heating degree days 125 159  
Since 1 July heating degree days 895 1001  
Cooling Degree Days 0 0  
Month to date cooling degree days 0 0  
Year to date cooling degree days 959 564  
Moisture  
Dew Point 30 °F    
Average Humidity 61    
Maximum Humidity 92    
Minimum Humidity 29    
Precipitation  
Precipitation 0.00 in 0.02 in 0.35 in (1990)
Month to date precipitation T 0.12  
Year to date precipitation 6.53 15.01  
Sea Level Pressure  
Sea Level Pressure 30.18 in    
Wind  
Wind Speed 7 mph (NW)    
Max Wind Speed 20 mph    
Max Gust Speed 25 mph    
Visibility 10 miles    
Events      
T = Trace of Precipitation, MM = Missing Value Source: NWS Daily Summary

Daily Weather History Graph

Daily Weather History Graph

Search for Another Location

Airport or City:

Trip Planner

Search our weather history database for the weather conditions in past years. The results will help you decide how hot, cold, wet, or windy it might be!

Date:

Astronomy

Nov. 06, 2012 Rise Set
Actual Time 6:30 AM MST 4:38 PM MST
Civil Twilight 6:01 AM MST 5:07 PM MST
Nautical Twilight 5:28 AM MST 5:41 PM MST
Astronomical Twilight 4:55 AM MST 6:13 PM MST
Moon 11:21 PM MST (11/6) 12:23 PM MST (11/6)
Length of Visible Light 11h 06m
Length of Day
10h 07m
Waning Gibbous, 52% of the Moon is Illuminated
Nov 6
Waning Gibbous
Nov 6
Last Quarter
Nov 13
New
Nov 20
First Quarter
Nov 28
Full

Hourly Weather History & Observations

Time (MST) Temp. Windchill Dew Point Humidity Pressure Visibility Wind Dir Wind Speed Gust Speed Precip Events Conditions
12:53 AM 42.1 °F 37.7 °F 34.0 °F 73% 30.08 in 10.0 mi North 6.9 mph - N/A   Clear
1:53 AM 43.0 °F 37.7 °F 36.0 °F 76% 30.09 in 10.0 mi NNW 9.2 mph - N/A   Clear
2:53 AM 35.1 °F 29.3 °F 30.9 °F 85% 30.13 in 10.0 mi West 6.9 mph - N/A   Clear
3:53 AM 34.0 °F 28.0 °F 30.9 °F 89% 30.14 in 10.0 mi WNW 6.9 mph - N/A   Clear
4:53 AM 28.4 °F 22.2 °F 26.6 °F 93% 30.17 in 10.0 mi West 5.8 mph - N/A   Clear
5:53 AM 30.0 °F 23.2 °F 28.0 °F 92% 30.24 in 10.0 mi West 6.9 mph - N/A   Clear
6:53 AM 28.9 °F 21.9 °F 27.0 °F 92% 30.27 in 10.0 mi West 6.9 mph - N/A   Clear
7:53 AM 37.0 °F 32.4 °F 33.1 °F 86% 30.26 in 10.0 mi West 5.8 mph - N/A   Clear
8:53 AM 42.1 °F - 35.1 °F 76% 30.27 in 10.0 mi Calm Calm - N/A   Clear
9:53 AM 48.9 °F - 37.0 °F 64% 30.25 in 10.0 mi NW 4.6 mph - N/A   Clear
10:53 AM 55.0 °F - 34.0 °F 45% 30.22 in 10.0 mi NNW 10.4 mph - N/A   Clear
11:53 AM 57.0 °F - 32.0 °F 39% 30.15 in 10.0 mi NW 12.7 mph - N/A   Clear
12:53 PM 60.1 °F - 30.9 °F 33% 30.13 in 10.0 mi NW 12.7 mph - N/A   Clear
1:53 PM 61.0 °F - 28.9 °F 30% 30.11 in 10.0 mi NW 12.7 mph - N/A   Clear
2:53 PM 61.0 °F - 28.0 °F 29% 30.12 in 10.0 mi NNW 13.8 mph - N/A   Clear
3:53 PM 59.0 °F - 28.9 °F 32% 30.13 in 10.0 mi NNW 10.4 mph - N/A   Clear
4:53 PM 50.0 °F - 28.9 °F 44% 30.19 in 10.0 mi North 8.1 mph - N/A   Clear
5:53 PM 44.1 °F 40.1 °F 28.0 °F 53% 30.20 in 10.0 mi NNE 6.9 mph - N/A   Clear
6:53 PM 43.0 °F - 28.0 °F 56% 30.20 in 10.0 mi Calm Calm - N/A   Clear
7:53 PM 35.1 °F 31.0 °F 26.1 °F 70% 30.20 in 10.0 mi West 4.6 mph - N/A   Clear
8:53 PM 36.0 °F - 28.0 °F 73% 30.19 in 10.0 mi Calm Calm - N/A   Clear
9:53 PM 28.0 °F 21.7 °F 23.0 °F 81% 30.19 in 10.0 mi East 5.8 mph - N/A   Clear
10:53 PM 30.9 °F 27.5 °F 25.0 °F 79% 30.15 in 10.0 mi East 3.5 mph - N/A   Clear
11:53 PM 30.9 °F - 25.0 °F 79% 30.13 in 10.0 mi Calm Calm - N/A   Clear